www.pogodaiklimat.ru

Погода и климат >> Архив погоды >> Россия >> Курганская область >> Звериноголовское


ПОГОДА в Звериноголовском

  • Прогноз погоды в Звериноголовском
  • Монитор погоды в Звериноголовском

АРХИВ ПОГОДЫ в Звериноголовском

Время (UTC), дата Ветер
(напр.,м/с)
 
Видим.   Явления Облачность Т
(С)
Тd
(С)
f
(%)
Тe
(С)
Тes
(С)
Комфортность P
(гПа)
Po
(гПа)
Тmin
(С)
Tmax
(С)
R
(мм)
R24
(мм)
S
(см)
00 16.09 Ю 3 10 км 8/0
[Ac trans]
+13.4 +3.2 50 +12 +12 1010.0 996.1
03 16.09 Ю 2 20 км 9/3 1000 м
[Sc Ac trans Cc]
+14.0 +4.6 53 +14 +14 1009.1 995.2 +10.5
06 16.09 Ю 2 20 км 9/5 1000 м
[Cu med, cong Ac cast Cs]
+20.3 +6.2 40 +22 +24 комфорт 1007.4 993.8
09 16.09 Ю 5
{10}
20 км 9/5 600 м
[Sc diur, vesp Ac As]
+23.5 +2.2 25 +23 +24 комфорт 1004.8 991.4
12 16.09 ЮЗ 1
{12}
20 км 8/3 1000 м
[Cu hum Ac As]
+21.4 +5.0 34 +22 +22 комфорт 1003.7 990.2
15 16.09 штиль 0
{10}
10 км в посл. час ливневой дождь 9/9 600 м
[Cb cap]
+10.9 +8.1 83 +10 +10 1006.9 992.9 +24.7 0.3
18 16.09 Ю 1 4000 м дымка {ливн. осадки} ясно +6.0 +4.9 93 +5 +5 1008.1 993.9
21 16.09 Ю 2 10 км 6/0
[Ac trans]
+6.9 +5.9 93 +5 +5 1007.6 993.4
00 17.09 Ю 2 10 км 8/0
[Ac As]
+8.1 +5.4 83 +6 +6 1007.4 993.2
03 17.09 Ю 3 20 км 9/3 600 м
[Sc Ac As]
+10.1 +5.6 74 +8 +8 1006.9 992.9 +5.5
06 17.09 Ю 3 20 км в посл. час дождь 10/8 600 м
[Sc Ac As]
+12.3 +6.6 68 +11 +11 1006.3 992.4
09 17.09 ЮЗ 3 20 км {дождь} 10/10 600 м
[Sc]
+14.6 +4.8 52 +14 +14 1005.9 992.1
12 17.09 ЮЗ 2
{11}
20 км {дождь} 9/6 1000 м
[Cu Sc Cs]
+19.2 +3.3 35 +20 +21 1005.3 991.7
15 17.09 Ю 1 10 км 9/9 600 м
[Sc]
+12.3 +5.4 63 +12 +12 1006.5 992.6 +19.4
18 17.09 Ю 2 10 км 6/3 600 м
[Sc Ac lent]
+13.4 +3.8 52 +13 +13 1006.6 992.7
21 17.09 Ю 2 10 км 10/10 600 м
[Sc]
+13.3 +5.7 60 +13 +13 1006.7 992.8
00 18.09 Ю 3 10 км 10/10 600 м
[Sc]
+15.2 +3.9 47 +15 +15 1005.9 992.1
03 18.09 Ю 2 20 км 10/10 600 м
[Sc]
+14.5 +3.9 49 +14 +14 1005.0 991.2 +11.9
06 18.09 Ю 3 20 км 10/10 600 м
[Cb cap]
+17.3 +4.1 41 +17 +17 1004.2 990.6
09 18.09 З 2 20 км 10/10 600 м
[Cb cap]
+18.8 +8.3 50 +20 +20 1003.5 989.9
12 18.09 штиль 0 10 км слаб. дождь 10/10 600 м
[Sc]
+16.5 +12.0 75 +16 +16 1003.4 989.7
15 18.09 Ю 3 4000 м слаб. дождь 10/0 600 м
[]
+13.5 +12.0 91 +12 +12 1004.1 990.3 +22.3 3
18 18.09 ЮЗ 2 10 км {дождь} 8/3 600 м
[Sc Cs]
+13.9 +11.9 88 +13 +13 1004.6 990.8
21 18.09 Ю 1 4000 м дымка ясно +10.9 +9.8 93 +10 +10 1005.1 991.2
00 19.09 ЮЗ 1 4000 м дымка ясно +9.6 +8.8 95 +9 +9 1005.7 991.6
03 19.09 Ю 3 20 км 8/0
[Ac As Cs]
+10.3 +9.5 95 +8 +8 1004.2 990.2 +8.0 0.3
06 19.09 Ю 5
{12}
20 км 9/4 600 м
[Cb cap Ac trans Cc]
+16.5 +9.2 62 +16 +17 1001.3 987.7
09 19.09 Ю 7-13
{13}
20 км в посл. час ливневой дождь 10/10 600 м
[Cb cap]
+17.1 +9.7 62 +16 +16 996.2 982.7
12 19.09 ЮЗ 6-11
{17}
20 км в посл. час ливневой дождь 9/4 600 м
[Cb cap Ac cast]
+15.1 +9.6 70 +14 +14 994.3 980.7
15 19.09 ЮЗ 4
{15}
10 км 3/3 1000 м
[Cu Sc]
+13.0 -0.1 41 +12 +12 995.4 981.6 +18.2 3
18 19.09 ЮЗ 5-10
{17}
10 км 8/3 1000 м
[Cu hum Cs]
+10.4 +2.8 59 +8 +8 996.3 982.4
21 19.09 З 4-11
{14}
10 км 10/10 600 м
[Cb cap]
+9.3 +3.3 66 +7 +7 1001.6 987.6
00 20.09 ЮЗ 2
{13}
10 км ясно +7.9 +3.5 74 +6 +6 1006.6 992.4
03 20.09 ЮЗ 2 20 км 1/0
[Ac trans]
+8.5 +3.6 71 +7 +8 1008.8 994.7 +6.6
06 20.09 З 3
{10}
20 км 8/4 1000 м
[Cu hum Ac trans Cc]
+13.3 +3.6 52 +12 +14 1010.5 996.6
09 20.09 ЮЗ 3 20 км 8/5 1000 м
[Cu med, cong Ac trans Ci fib]
+15.3 +1.9 40 +15 +17 1011.2 997.3
12 20.09 ЮЗ 2 20 км 6/6 600 м
[Cb cap]
+14.6 +2.1 43 +15 +15 1012.4 998.5
15 20.09 ЮЗ 1 10 км 1/1 600 м
[Sc]
+7.6 +2.8 72 +7 +7 1014.8 1000.5 +16.3
18 20.09 Ю 2 10 км ясно +5.3 +2.5 82 +3 +3 1015.8 1001.4
21 20.09 Ю 1 10 км 4/0
[Cs]
+4.5 +2.2 85 +3 +3 1016.9 1002.4
00 21.09 Ю 2 10 км 5/0
[Cs]
+3.2 +1.2 87 0 0 1017.6 1003.0
03 21.09 Ю 1 20 км 8/0
[Ac trans Cs]
+4.9 +2.3 83 +4 +4 1018.2 1003.7 +2.7
06 21.09 Ю 1 20 км 8/0
[Cs]
+11.8 +4.7 62 +12 +18 1017.7 1003.6
09 21.09 ЮЗ 1 20 км 10/0
[As trans]
+12.6 +3.5 54 +13 +16 1016.2 1002.1
12 21.09 Ю 1 10 км слаб. дождь 10/10 600 м
[Sc]
+8.6 +5.9 83 +8 +8 1016.2 1002.0
15 21.09 В 4 4000 м слаб. дождь 10/10 600 м
[Sc]
+7.1 +5.5 90 +3 +3 1012.3 998.1 +12.6 3
18 21.09 В 7
{10}
4000 м слаб. дождь 10/0 600 м
[As op]
+7.3 +5.7 90 +3 +3 1006.4 992.2
21 21.09 В 3
{10}
4000 м дождь 10/0 600 м
[As op]
+8.3 +7.4 94 +5 +5 1000.6 986.6
00 22.09 СВ 2 4000 м дождь 10/0 600 м
[As op]
+8.7 +7.9 95 +7 +7 994.1 980.1
03 22.09 ЮЗ 1 4000 м дымка {дождь} 10/10 600 м
[St]
+8.4 +7.7 95 +8 +8 993.4 979.5 +7.1 28
06 22.09 З 3 20 км {дождь} 10/10 600 м
[St]
+7.3 +6.6 95 +4 +4 993.7 979.7
09 22.09 З 2 20 км 10/10 600 м
[St]
+8.4 +5.9 84 +7 +7 995.4 981.4
12 22.09 З 2 20 км 10/10 600 м
[Sc]
+8.8 +4.4 74 +7 +7 997.8 983.8
15 22.09 З 1 10 км 10/10 600 м
[Sc]
+7.0 +4.1 82 +6 +6 1000.8 986.7 +9.0
18 22.09 ЮЗ 1 10 км 3/0
[Cs]
+1.4 -0.9 85 -0 -0 1002.9 988.5
21 22.09 Ю 2 10 км 5/3 1000 м
[Sc Cs]
+0.3 -1.3 89 -3 -3 1004.6 990.1

 

Местоположение метеостанции Звериноголовское (Курганская область, Россия): широта 54.47 долгота 64.87 высота над уровнем моря 117 м.

В архиве по умолчанию представлена погода в Звериноголовском за последнюю неделю. Архивные данные за месяц целиком и за предыдущие месяцы, начиная с января 2011 года, Вы можете получить, выбрав интересующий диапазон дат из раскрывающегося списка и нажав кнопку "Ввод!".


*Определитесь, кто Вы:
робот инопланетянин человек

Внимание! Время в таблицах - всемирное. Для получения местного времени необходимо прибавить поправку, которая равна 5 ч.

Смотрите также архив погоды в соседних городах и на ближайших метеорологических станциях:

Погода в Куртамыше (Курганская область, Россия) (57 км)
Погода в Пресногорьковке (Костанайская область, Казахстан) (59 км)
Погода в Целинном (Курганская область, Россия) (78 км)
Погода в Половинном (Курганская область, Россия) (80 км)
Погода в Кургане (Курганская область, Россия) (114 км)
Погода в Шумихе (Курганская область, Россия) (130 км)
Погода в Тимирязево (Северо-Казахстанская область, Казахстан) (133 км)
Погода в Сарыколе (Костанайская область, Казахстан) (135 км)
Погода в Благовещенке (Северо-Казахстанская область, Казахстан) (136 км)
Погода в Октябрьском (Челябинская область, Россия) (140 км)

Пояснения к столбцам:

Ветер - указаны скорость ветра в м/с - средняя за 10 мин, порывы в срок и между сроками (в фигурных скобках) и направление, откуда дует ветер: С - северный, СВ - северо-восточный, В - восточный, ЮВ - юго-восточный, Ю - южный, ЮЗ - юго-западный, З - западный, СЗ - северо-западный.
Видимость - горизонтальная дальность видимости в метрах или километрах. При видимости от 1 до 10 км при отсутствии осадков обычно наблюдается дымка, при ухудшении видимости до 1 км и менее - туман. В сухую погоду видимость может ухудшаться дымом, пылью или мглою.
Явления - указаны атмосферные явления, наблюдавшиеся в срок или в последний час перед сроком; фигурными скобками обозначены явления, наблюдавшиеся между сроками (за 1-3 часа до срока); квадратными скобками обозначены град или гололедные отложения с указанием их диаметра в мм.
Облачность - указаны через наклонную черту общая и нижняя облачность в баллах и высота нижней границы облаков в метрах; квадратными скобками обозначены формы облаков: Ci - перистые, Cs - перисто-слоистые, Cc - перисто-кучевые, Ac - высококучевые, As - высокослоистые, Sc - слоисто-кучевые, Ns - слоисто-дождевые, Cu - кучевые, Cb - кучево-дождевые. Подробнее классификацию облаков см. в Атласе облаков (PDF).
T - Температура воздуха - температура, измеренная на высоте 2 м над землей.
Td - Температура точки росы - температура, при понижении до которой содержащийся в воздухе водяной пар достигнет насыщения.
f - Относительная влажность воздуха - влажноcть воздуха, измеренная на высоте 2 м над землей.
Te - Эффективная температура - температура, которую ощущает одетый по сезону человек в тени. Характеристика душности погоды. При расчете учитывается влияние влажности воздуха и скорости ветра на теплоощущения человека.
Tes - Эффективная температура на солнце - температура, которую ощущает человек, с поправкой на солнечный нагрев. Характеристика знойности погоды. Зависит от высоты солнца над горизонтом, облачности и скорости ветра. Ночью, в пасмурную погоду, а также при ветре 12 м/с и более поправка равна нулю.
P - Атмосферное давление - приведенное к уровню моря атмосферное давление.
Po - Атмосферное давление - измеренное на уровне метеостанции атмосферное давление.
Tmin - Минимальная температура - минимум температуры воздуха на высоте 2 м над землей.
Tmax - Максимальная температура - максимум температуры воздуха на высоте 2 м над землей.
R - Количество осадков - Количество выпавших осадков за период времени, мм. При наведении курсора мыши на число - период времени, за который выпало указанное количество осадков.
R24 - Количество осадков - Количество выпавших осадков за 24 часа, мм.
S - Снежный покров - Высота снежного покрова, см. При наведении курсора мыши на число - состояние снежного покрова и степень покрытия местности в баллах.